Location: Ladrillo (historical)
(32.8195°N, 117.2231°W)
Time: 01:21:03
(UTC+00:00)

Courier 1B - Pass Details

Date: 08 March 2021
Orbit: 963 x 1209 km, 28.3° (Epoch: 15 April)

Event Time Altitude Azimuth Distance (km) Brightness Sun altitude
Rises 13:16:18 0° 238° (WSW) 3,768 - -11.6°
Exits shadow 13:18:26 - 234° (SW) 3,039 9.6 -11.2°
Reaches altitude 10° 13:19:12 10° 231° (SW) 2,782 9.4 -11.0°
Maximum altitude 13:25:24 40° 164° (SSE) 1,396 8.5 -9.7°
Drops below altitude 10° 13:31:24 10° 96° (E) 2,692 11.5 -8.4°
Sets 13:34:09 0° 89° (E) 3,634 13.1 -7.9°
